sat.trackr.live / text

‹ back to catalog

MEV-2

NORAD 46113 · 2020-056B

PAYLOAD ACTIVE UNKNOWN

§ Identity

Operator
Country
US
Launch date
2020-08-15
Launch site
FRGUI
Launch vehicle
Mass (kg)
RCS (m²)

Purposes: comms

External: N2YO · Heavens-Above · Gunter

§ Orbital elements

Epoch: 2026-09-14T22:21:09.572256Z

Period
1,436.09 min
Inclination
0.0413°
Eccentricity
0.0000104
Mean motion
1.00272592 rev/d
Perigee alt
35,785.9 km
Apogee alt
35,786.8 km
Semi-major
42,164.5 km
B*
0.0000e+0
RAAN
260.2103°
Arg perigee
79.2769°
Mean anomaly
348.7067°
Rev number
8,164

§ Raw data

MEV-21 46113U 20056B   26257.93136079 -.00000018  00000+0  00000+0 0  99962 46113   0.0413 260.2103 0000104  79.2769 348.7067  1.00272592 81646

JSON: /api/v1/satellites/46113 · /tle

For live sub-satellite position, see the globe view (requires WebGL).

§ Visibility from observer

Set your observer location to see the next 7 days of passes ≥ 10°. The values pass through the URL so the page stays shareable.

No JS? Fill the form by hand. The geolocation button needs JavaScript.